SL-14 R/B (21820 NORAD) Tracking and Keplerian Element Data

This shows tracking and keplerian element data for the satellite.

Feedback or suggestion? Click here.




ElementValue
Catalog21820
NameSL-14 R/B
Epoch Orbit16880
Epoch Day323.13540591
Epoch Year2018
RAAN171.7529
Inclination82.5612
Eccentricity0.1575644
Argument of Perigee268.7145
Mean Anonmoly73.3688
Mean Motion11.93415602
Decay Rate7.3E-07
L11 21820U 91086B 18323.13540591 .00000073 00000-0 15069-4 0 9997
L22 21820 82.5612 171.7529 1575644 268.7145 73.3688 11.93415602168806

Live tracking and technical data element details for SL-14 R/B (NORAD 21820). SL-14 R/B can be tracked NOW for your location showing map with azimuth and elevation plus other details from your city location.

Track the satellite on the map from your city or location and see movement details for azimuth, elevation, latitude, longitude, range, height, and movement on the map or in text.







IsCatalogInMostPopularTable: catalog: 21820, numindb: 35
Update: records affected: 1



GetName: 21820 SL-14 R/B

Hit Count: updated at: Mon, 19 Nov 2018 23:58:19 GMT